Kalamazoo, MI

8:27 AM EDT on April 28, 2017 (GMT -0400)
Kalamazoo-Battle Creek International

Weather History for KAZO - February, 2013

Change the Weather History Date:

Tuesday, February 19, 2013

  Actual Average Record
Temperature  
Mean Temperature 31 °F 28 °F  
Max Temperature 44 °F 35 °F 65 °F (2017)
Min Temperature 17 °F 20 °F -10 °F (2015)
Degree Days  
Heating Degree Days 34 37  
Month to date heating degree days 768 742  
Since 1 July heating degree days 4219 4450  
Cooling Degree Days 0 0  
Month to date cooling degree days 0 0  
Year to date cooling degree days 0 0  
Moisture  
Dew Point 20 °F    
Average Humidity 82    
Maximum Humidity 92    
Minimum Humidity 71    
Precipitation  
Precipitation 0.10 in 0.06 in 0.64 in (1971)
Month to date precipitation 0.57 0.92  
Year to date precipitation 3.97 2.71  
Sea Level Pressure  
Sea Level Pressure 29.72 in    
Wind  
Wind Speed 18 mph (WSW)    
Max Wind Speed 30 mph    
Max Gust Speed 36 mph    
Visibility 3 miles    
Events Fog , Rain , Snow    
T = Trace of Precipitation, MM = Missing Value Source: NWS Daily Summary

Daily Weather History Graph

Daily Weather History Graph

Search for Another Location

Airport or City:

Trip Planner

Search our weather history database for the weather conditions in past years. The results will help you decide how hot, cold, wet, or windy it might be!

Date:

Astronomy

Feb. 19, 2013 Rise Set
Actual Time 7:32 AM EST 6:20 PM EST
Civil Twilight 7:03 AM EST 6:48 PM EST
Nautical Twilight 6:31 AM EST 7:21 PM EST
Astronomical Twilight 5:58 AM EST 7:53 PM EST
Moon 12:47 PM EST (2/19) 3:07 AM EST (2/19)
Length of Visible Light 11h 44m
Length of Day
10h 47m
Waxing Gibbous, 67% of the Moon is Illuminated
Feb 19
Waxing Gibbous
Feb 25
Full
Mar 4
Last Quarter
Mar 11
New
Mar 19
First Quarter

Hourly Weather History & Observations

Time (EST) Temp. Windchill Dew Point Humidity Pressure Visibility Wind Dir Wind Speed Gust Speed Precip Events Conditions
12:53 AM 44.1 °F 35.0 °F 42.1 °F 93% 29.44 in 10.0 mi South 24.2 mph 33.4 mph 0.01 in Rain Light Rain
1:39 AM 44.6 °F 36.4 °F 42.8 °F 93% 29.41 in 6.0 mi South 20.7 mph 31.1 mph 0.02 in Rain Rain
1:53 AM 44.1 °F 35.4 °F 43.0 °F 96% 29.42 in 5.0 mi South 21.9 mph 32.2 mph 0.03 in Rain Light Rain
2:04 AM 39.2 °F 28.3 °F 37.4 °F 93% 29.44 in 3.0 mi West 25.3 mph 35.7 mph 0.04 in Rain Heavy Rain
2:53 AM 35.1 °F 23.8 °F 33.1 °F 92% 29.48 in 10.0 mi West 20.7 mph 26.5 mph 0.06 in Rain Light Rain
3:53 AM 33.1 °F 22.2 °F 30.9 °F 92% 29.52 in 7.0 mi West 17.3 mph 31.1 mph 0.00 in   Overcast
4:53 AM 30.9 °F 19.8 °F 28.0 °F 89% 29.56 in 4.0 mi West 16.1 mph 26.5 mph 0.00 in   Overcast
5:01 AM 30.2 °F 18.1 °F 28.4 °F 93% 29.54 in 4.0 mi West 18.4 mph 33.4 mph 0.00 in Rain Light Freezing Rain
5:10 AM 30.2 °F 18.1 °F 28.4 °F 93% 29.54 in 4.0 mi West 18.4 mph 28.8 mph 0.00 in Rain Light Freezing Rain
5:20 AM 30.2 °F 16.8 °F 28.4 °F 93% 29.55 in 4.0 mi WSW 23.0 mph 29.9 mph 0.00 in Rain Light Freezing Rain
5:33 AM 28.4 °F 15.1 °F 26.6 °F 93% 29.56 in 6.0 mi WSW 20.7 mph 32.2 mph 0.00 in Rain Light Freezing Rain
5:53 AM 28.0 °F 14.3 °F 24.1 °F 85% 29.59 in 7.0 mi West 21.9 mph 29.9 mph 0.00 in   Overcast
6:23 AM 26.6 °F 13.4 °F 24.8 °F 93% 29.58 in 7.0 mi West 18.4 mph 26.5 mph N/A   Overcast
6:53 AM 26.1 °F 12.0 °F 23.0 °F 88% 29.62 in 7.0 mi WSW 20.7 mph 27.6 mph N/A   Overcast
7:38 AM 24.8 °F 11.1 °F 21.2 °F 86% 29.61 in 4.0 mi West 18.4 mph 31.1 mph 0.00 in Rain Light Freezing Rain
7:53 AM 24.1 °F 9.0 °F 21.0 °F 88% 29.65 in 4.0 mi WSW 21.9 mph 29.9 mph 0.00 in Snow Light Snow
8:07 AM 24.8 °F 11.5 °F 19.4 °F 80% 29.63 in 1.8 mi West 17.3 mph 32.2 mph 0.00 in Snow Light Snow
8:53 AM 21.9 °F 8.2 °F 19.0 °F 89% 29.68 in 0.8 mi WSW 16.1 mph 27.6 mph 0.00 in Fog , Snow Snow
9:10 AM 21.2 °F 5.6 °F 17.6 °F 86% 29.66 in 0.8 mi WSW 20.7 mph 31.1 mph 0.00 in Snow Light Snow
9:23 AM 21.2 °F 6.0 °F 15.8 °F 80% 29.66 in 1.0 mi WSW 19.6 mph 32.2 mph 0.00 in Snow Light Snow
9:53 AM 21.0 °F 5.7 °F 17.1 °F 85% 29.70 in 0.8 mi WSW 19.6 mph 28.8 mph 0.00 in Snow Light Snow
10:53 AM 19.9 °F 4.3 °F 16.0 °F 85% 29.73 in 0.8 mi WSW 19.6 mph 32.2 mph 0.00 in Snow Light Snow
11:23 AM 21.2 °F 6.0 °F 15.8 °F 80% 29.71 in 1.0 mi West 19.6 mph 26.5 mph 0.00 in Snow Light Snow
11:53 AM 21.0 °F 3.6 °F 14.0 °F 74% 29.75 in 2.5 mi West 26.5 mph 33.4 mph 0.00 in Snow Light Snow
12:57 PM 19.4 °F 4.5 °F 14.0 °F 80% 29.74 in 1.2 mi WSW 17.3 mph 31.1 mph 0.00 in Snow Light Snow
1:53 PM 21.0 °F 6.2 °F 14.0 °F 74% 29.78 in 2.0 mi West 18.4 mph 29.9 mph 0.00 in Snow Light Snow
2:00 PM 21.2 °F 6.0 °F 14.0 °F 74% 29.76 in 2.0 mi West 19.6 mph 28.8 mph 0.00 in Snow Light Snow
2:08 PM 19.4 °F 3.6 °F 14.0 °F 80% 29.76 in 1.0 mi West 19.6 mph 28.8 mph 0.00 in Snow Light Snow
2:53 PM 19.9 °F 4.3 °F 14.0 °F 78% 29.82 in 1.2 mi West 19.6 mph 26.5 mph 0.00 in Snow Light Snow
3:30 PM 19.4 °F 3.2 °F 14.0 °F 80% 29.80 in 0.8 mi WSW 20.7 mph 26.5 mph 0.00 in Snow Light Snow
3:53 PM 19.0 °F 4.0 °F 14.0 °F 81% 29.86 in 0.8 mi WSW 17.3 mph 25.3 mph 0.00 in Snow Light Snow
4:53 PM 19.0 °F 4.0 °F 14.0 °F 81% 29.89 in 1.0 mi WSW 17.3 mph 25.3 mph 0.00 in Snow Light Snow
5:37 PM 17.6 °F 3.2 °F 14.0 °F 86% 29.88 in 0.8 mi West 15.0 mph 27.6 mph 0.00 in Snow Light Snow
5:53 PM 18.0 °F 0.9 °F 14.0 °F 84% 29.93 in 0.5 mi WSW 21.9 mph 27.6 mph 0.00 in Fog , Snow Snow
6:21 PM 17.6 °F 3.2 °F 12.2 °F 79% 29.90 in 1.2 mi West 15.0 mph 27.6 mph 0.00 in Snow Light Snow
7:53 PM 17.1 °F 4.3 °F 14.0 °F 88% 29.99 in 1.0 mi West 11.5 mph - 0.00 in Snow Light Snow
8:53 PM 18.0 °F 4.2 °F 12.9 °F 81% 30.01 in 2.0 mi WNW 13.8 mph 23.0 mph 0.00 in Snow Light Snow
9:53 PM 18.0 °F 5.4 °F 12.9 °F 81% 30.03 in 2.0 mi West 11.5 mph - 0.00 in Snow Light Snow
10:53 PM 17.1 °F 2.5 °F 12.0 °F 81% 30.04 in 5.0 mi WNW 15.0 mph - 0.00 in Snow Light Snow
11:06 PM 17.6 °F 5.7 °F 12.2 °F 79% 29.99 in 2.5 mi West 10.4 mph - 0.00 in Snow Light Snow
11:31 PM 17.6 °F 6.4 °F 12.2 °F 79% 29.99 in 1.5 mi West 9.2 mph - 0.00 in Snow Light Snow
11:53 PM 17.1 °F 3.6 °F 12.9 °F 84% 30.04 in 1.5 mi West 12.7 mph - 0.00 in Snow Light Snow